Location: Boda
(47.1872°N, 9.5454°E)
Time: 09:39:02
(UTC+00:00)

Cosmos 304 Rocket - Pass Details

Date: 14 May 2021
Orbit: 678 x 688 km, 74.0° (Epoch: 16 June)

Event Time Altitude Azimuth Distance (km) Brightness Sun altitude
Exits shadow 02:17:53 18° 237° (WSW) 1,645 5.1 -12.8°
Maximum altitude 02:21:01 40° 299° (WNW) 1,001 4.5 -12.4°
Drops below altitude 10° 02:25:34 10° 10° (N) 2,139 7.2 -11.9°
Sets 02:28:01 0° 18° (NNE) 3,061 8.3 -11.6°
